1327798227880,0.000150224
1327798287880,0.000147950
1327798347880,0.000149792
1327798407880,0.000149876
1327798467880,0.000149560
1327801827891,0.000149559
1327801887891,0.000148429
1327801947891,0.000149367
1327802007891,0.000150069
1327802067891,0.000148306
1327805427902,0.000149236
1327805487902,0.000150898
1327805547902,0.000149092
1327805607902,0.000148219
1327805667902,0.000147789
1327809027913,0.000147704
1327809087913,0.000149943
1327809147913,0.000150213
1327809207913,0.000148474
1327809267913,0.000147830
1327812627924,0.000150390
1327812687924,0.000148499
1327812747924,0.000149492
1327812807924,0.000146889
1327812867924,0.000148486
1327816227936,0.000149126
1327816287936,0.000147953
1327816347936,0.000148071
1327816407936,0.000147294
1327816467936,0.000147574
1327819827947,0.000149780
1327819887947,0.000147831
1327819947947,0.000149016
1327820007947,0.000148871
1327820067947,0.000148758
1327823427959,0.000149749
1327823487959,0.000149143
1327823547959,0.000148953
1327823607959,0.000149471
1327823667959,0.000149796
1327827027971,0.000150077
1327827087971,0.000150513
1327827147971,0.000152256
1327827207971,0.000151101
1327827267971,0.000149408
1327830627983,0.000146245
1327830687983,0.000149644
1327830747983,0.000149570
1327830807983,0.000149350
1327830867983,0.000147838
1327834227995,0.000146684
1327834287995,0.000146235
1327834347995,0.000147590
1327834407995,0.000149342
1327834467995,0.000147561
1327837828007,0.000147089
1327837888007,0.000148730
1327837948007,0.000148964
1327838008007,0.000150468
1327838068007,0.000148230
1327841428019,0.000147993
1327841488019,0.000147972
1327841548019,0.000147683
1327841608019,0.000148033
1327841668019,0.000148354
1327845028031,0.000151921
1327845088031,0.000150286
1327845148031,0.000150599
1327845208031,0.000148711
1327845268031,0.000149213
1327845328031,0.000150465
1327845388031,0.000150772
1327845448031,0.000148480
1327845508031,0.000148588
1327845568031,0.000150132
1327845628043,0.000150441
1327845688043,0.000149827
1327845748043,0.000150335
1327845808043,0.000150057
1327845868043,0.000150902
1327845928043,0.000152209
1327845988043,0.000151440
1327846048043,0.000150103
1327846108043,0.000149707
1327846168043,0.000149188
1327846228043,0.000150586
1327846288043,0.000149587
1327846348043,0.000148979
1327846408043,0.000148730
1327846468043,0.000148685
1327846528043,0.000148405
1327846588043,0.000149208
1327846648043,0.000151006
1327846708043,0.000150323
1327846768043,0.000148733
1327846828043,0.000149289
1327846888043,0.000149408
1327846948043,0.000150152
1327847008043,0.000149795
1327847068043,0.000150788
1327847128043,0.000149295
1327847188043,0.000150611
1327847248043,0.000151229
1327847308043,0.000149782
1327847368043,0.000151380
1327847428043,0.000149962
1327847488043,0.000148647
1327847548043,0.000148901
1327847608043,0.000149295
1327847668043,0.000149135
1327847728043,0.000150064
1327847788043,0.000150203
1327847848043,0.000152094
1327847908043,0.000150138
1327847968043,0.000152182
1327848028043,0.000151609
1327848088043,0.000150338
1327848148043,0.000151030
1327848208043,0.000151040
1327848268043,0.000150506
1327848328043,0.000149420
1327848388043,0.000151176
1327848448043,0.000149776
1327848508043,0.000148900
1327848568043,0.000149778
1327848628043,0.000149509
1327848688043,0.000150298
1327848748043,0.000149806
1327848808043,0.000150583
1327848868043,0.000149115
1327848928043,0.000150637
1327848988043,0.000150124
1327849048043,0.000150988
1327849108043,0.000151244
1327849168043,0.000150827
1327849228055,0.000152514
1327849288055,0.000151883
1327849348055,0.000152399
1327849408055,0.000150707
1327849468055,0.000150811
1327849528055,0.000150801
1327849588055,0.000151665
1327849648055,0.000150711
1327849708055,0.000150126
1327849768055,0.000150410
1327849828055,0.000151251
1327849888055,0.000151172
1327849948055,0.000149268
1327850008055,0.000149685
1327850068055,0.000152181
1327850128055,0.000150571
1327850188055,0.000149123
1327850248055,0.000148468
1327850308055,0.000149770
1327850368055,0.000149948
1327850428055,0.000147729
1327850488055,0.000148336
1327850548055,0.000149415
1327850608055,0.000149388
1327850668055,0.000149444
1327850728055,0.000149691
1327850788055,0.000150187
1327850848055,0.000150623
1327850908055,0.000149805
1327850968055,0.000149723
1327851028055,0.000149667
1327851088055,0.000148441
1327851148055,0.000150318
1327851208055,0.000151507
1327851268055,0.000150416
1327851328055,0.000149207
1327851388055,0.000150249
1327851448055,0.000151505
1327851508055,0.000151067
1327851568055,0.000148872
1327851628055,0.000150175
1327851688055,0.000149428
1327851748055,0.000148941
1327851808055,0.000149506
1327851868055,0.000149913
1327851928055,0.000148965
1327851988055,0.000149752
1327852048055,0.000147442
1327852108055,0.000149193
1327852168055,0.000148767
1327852228055,0.000149918
1327852288055,0.000149209
1327852348055,0.000149916
1327852408055,0.000149077
1327852468055,0.000149423
1327852528055,0.000148781
1327852588055,0.000150035
1327852648055,0.000149558
1327852708055,0.000151017
1327852768055,0.000149151
1327852828067,0.000149098
1327852888067,0.000149278
1327852948067,0.000149890
1327853008067,0.000150143
1327853068067,0.000148876
1327853128067,0.000150966
1327853188067,0.000150856
1327853248067,0.000150964
1327853308067,0.000149187
1327853368067,0.000151480
1327853428067,0.000150370
1327853488067,0.000153259
1327853548067,0.000154421
1327853608067,0.000152698
1327853668067,0.000154011
1327853728067,0.000153400
1327853788067,0.000152874
1327853848067,0.000153727
1327853908067,0.000151326
1327853968067,0.000152467
1327854028067,0.000152081
1327854088067,0.000152141
1327854148067,0.000149893
1327854208067,0.000150536
1327854268067,0.000151430
1327854328067,0.000151842
1327854388067,0.000151013
1327854448067,0.000150540
1327854508067,0.000151962
1327854568067,0.000152455
1327854628067,0.000152356
1327854688067,0.000151819
1327854748067,0.000153073
1327854808067,0.000152017
1327854868067,0.000152440
1327854928067,0.000152004
1327854988067,0.000151693
1327855048067,0.000152907
1327855108067,0.000150413
1327855168067,0.000150509
1327855228067,0.000149328
1327855288067,0.000152685
1327855348067,0.000149674
1327855408067,0.000150711
1327855468067,0.000150373
1327855528067,0.000150363
1327855588067,0.000149676
1327855648067,0.000150529
1327855708067,0.000149569
1327855768067,0.000150154
1327855828067,0.000149979
1327855888067,0.000149234
1327855948067,0.000150622
1327856008067,0.000149770
1327856068067,0.000149558
1327859428079,0.000152295
1327859488079,0.000151684
1327859548079,0.000151462
1327859608079,0.000150795
1327859668079,0.000149460
1327863028090,0.000149419
1327863088090,0.000151665
1327863148090,0.000149180
1327863208090,0.000150397
1327863268090,0.000152193
1327866628102,0.000152230
1327866688102,0.000151903
1327866748102,0.000150354
1327866808102,0.000151509
1327866868102,0.000149541
1327870228113,0.000152306
1327870288113,0.000151982
1327870348113,0.000151988
1327870408113,0.000152013
1327870468113,0.000151866
1327873828125,0.000154572
1327873888125,0.000154357
1327873948125,0.000153053
1327874008125,0.000153825
1327874068125,0.000151545
1327877428136,0.000152886
1327877488136,0.000151252
1327877548136,0.000151348
1327877608136,0.000153536
1327877668136,0.000152915
1327881028147,0.000150002
1327881088147,0.000151823
1327881148147,0.000152930
1327881208147,0.000150271
1327881268147,0.000149962
